Date String (YYYY-MM-DD hh:mm:ss) UTC,Instrument flags,Ambient pressure (hPa),Sample flow (lpm),Bypass flow (lpm),Sample temperature (°C),Ambient temperature (°C),ASC tube jacket temperature (°C),LED temperature (°C),Box temperature (°C),Sample RH (%),Span deviation,Mass concentration (μg/m³),Mass concentration (μg/m³),Mass concentration (μg/m³)
DateTimeUTC,F1_M11,P_M11,Q1_M11,Q2_M11,T1_M11,T2_M11,T3_M11,T4_M11,T5_M11,U1_M11,ZSPAN_M11,X2_M11,X0_M11,X1_M11
2022-11-13 16:00:00,,0820.0,5.00,0.00,23.0,21.7,00.0,31.7,24.9,09.9,0001.2,0008.47,0019.21,0007.19
2022-11-13 16:01:00,,0820.0,5.01,0.00,23.0,21.8,00.0,31.7,24.9,10.0,0001.0,0008.44,0020.09,0007.13
2022-11-13 16:02:00,,0820.0,5.00,0.00,23.0,21.7,00.0,31.7,24.9,10.1,0000.8,0008.37,0020.48,0007.06
2022-11-13 16:03:00,,0820.0,4.99,0.00,23.0,21.7,00.0,31.7,24.9,10.1,0000.2,0008.36,0020.68,0006.99
2022-11-13 16:04:00,,0820.0,5.01,0.00,23.0,21.7,00.0,31.7,24.9,10.0,-000.4,0008.25,0019.44,0006.90
2022-11-13 16:05:00,,0820.0,4.99,0.00,23.0,21.7,00.0,31.7,24.9,09.8,-000.6,0008.23,0019.58,0006.83
2022-11-13 16:06:00,,0820.0,5.02,0.00,23.0,21.7,00.0,31.7,24.9,09.7,-001.0,0008.18,0019.21,0006.78
2022-11-13 16:07:00,,0820.0,5.02,0.00,23.0,21.8,00.0,31.7,24.9,09.8,-000.9,0008.16,0019.17,0006.77
2022-11-13 16:08:00,,0820.0,4.99,0.00,23.0,21.8,00.0,31.7,24.9,09.6,-000.9,0008.15,0019.22,0006.74
2022-11-13 16:09:00,,0820.0,5.02,0.00,23.0,21.8,00.0,31.8,24.9,09.7,-000.7,0008.11,0019.44,0006.72
2022-11-13 16:10:00,,0820.0,4.98,0.00,23.0,21.8,00.0,31.8,24.9,09.7,-000.6,0008.06,0020.69,0006.70
2022-11-13 16:11:00,,0820.0,5.00,0.00,23.0,21.8,00.0,31.8,24.9,09.5,0000.5,0007.96,0021.31,0006.65
2022-11-13 16:12:00,,0820.0,5.01,0.00,23.0,21.8,00.0,31.8,24.9,09.6,-000.1,0007.89,0021.22,0006.64
2022-11-13 16:13:00,,0820.0,4.99,0.00,23.0,21.8,00.0,31.8,24.9,09.4,0000.5,0007.85,0020.24,0006.62
2022-11-13 16:14:00,,0819.9,5.00,0.00,23.0,21.8,00.0,31.8,24.9,09.6,0001.3,0007.88,0020.59,0006.64
2022-11-13 16:15:00,,0819.9,5.00,0.00,23.0,21.8,00.0,31.8,24.9,09.6,0002.1,0007.94,0021.76,0006.67
2022-11-13 16:16:00,,0819.9,5.02,0.00,23.0,21.8,00.0,31.8,24.9,09.6,0001.4,0007.97,0022.39,0006.70
2022-11-13 16:17:00,,0819.9,4.99,0.00,23.0,21.8,00.0,31.8,24.9,09.5,0001.8,0007.93,0022.06,0006.75
2022-11-13 16:18:00,,0819.9,5.00,0.00,23.0,21.8,00.0,31.8,24.9,09.5,0003.5,0007.93,0022.02,0006.81
2022-11-13 16:19:00,,0819.9,5.01,0.00,23.0,21.8,00.0,31.8,24.9,09.5,0003.6,0008.05,0022.51,0006.90
2022-11-13 16:20:00,,0819.9,4.99,0.00,23.0,21.8,00.0,31.8,24.9,09.3,0002.8,0008.22,0022.63,0007.03
2022-11-13 16:21:00,,0819.9,5.00,0.00,23.0,21.8,00.0,31.8,25.0,09.3,0001.8,0008.43,0022.04,0007.17
2022-11-13 16:22:00,,0819.9,5.00,0.00,23.0,21.8,00.0,31.8,24.9,09.3,0002.6,0008.53,0021.51,0007.30
2022-11-13 16:23:00,,0819.9,5.00,0.00,23.0,21.8,00.0,31.8,24.9,09.3,0002.9,0008.64,0021.67,0007.44
2022-11-13 16:24:00,,0819.9,5.00,0.00,23.0,21.8,00.0,31.8,24.9,09.3,0002.7,0008.80,0022.28,0007.58
2022-11-13 16:25:00,,0819.9,5.01,0.00,23.0,21.8,00.0,31.8,24.9,09.3,0001.8,0008.94,0022.04,0007.74
2022-11-13 16:26:00,,0820.0,4.99,0.00,23.0,21.8,00.0,31.8,24.9,09.4,0001.4,0008.99,0020.32,0007.87
2022-11-13 16:27:00,,0819.9,4.99,0.00,23.0,21.8,00.0,31.8,24.9,09.1,0002.2,0009.16,0019.96,0008.03
2022-11-13 16:28:00,,0819.9,5.00,0.00,23.0,21.8,00.0,31.8,25.0,09.1,0002.2,0009.32,0019.83,0008.17
2022-11-13 16:29:00,,0819.9,5.02,0.00,23.0,21.8,00.0,31.8,25.0,09.1,0002.1,0009.46,0019.48,0008.31
2022-11-13 16:30:00,,0820.0,4.99,0.00,23.1,21.8,00.0,31.8,24.9,09.1,0001.5,0009.58,0019.17,0008.46
2022-11-13 16:31:00,,0820.0,4.99,0.00,23.1,21.8,00.0,31.8,24.9,09.2,0001.3,0009.61,0019.15,0008.53
2022-11-13 16:32:00,,0820.1,5.00,0.00,23.1,21.8,00.0,31.8,25.0,09.4,0001.1,0009.58,0019.08,0008.56
2022-11-13 16:33:00,,0820.2,5.00,0.00,23.1,21.8,00.0,31.8,25.0,09.4,-000.0,0009.62,0019.31,0008.58
2022-11-13 16:34:00,,0820.2,5.01,0.00,23.1,21.7,00.0,31.8,25.0,09.4,-000.0,0009.67,0019.04,0008.61
2022-11-13 16:35:00,,0820.1,5.00,0.00,23.1,21.7,00.0,31.9,24.9,09.4,-000.1,0009.68,0019.00,0008.66
2022-11-13 16:36:00,,0820.0,5.01,0.00,23.0,21.7,00.0,31.8,25.0,09.4,0000.3,0009.73,0018.99,0008.69
2022-11-13 16:37:00,,0820.0,4.99,0.00,23.0,21.7,00.0,31.8,25.0,09.5,0000.1,0009.74,0019.40,0008.72
2022-11-13 16:38:00,,0820.0,4.99,0.00,23.0,21.7,00.0,31.8,24.9,09.5,-000.5,0009.68,0018.88,0008.70
2022-11-13 16:39:00,,0820.0,5.00,0.00,23.0,21.7,00.0,31.8,24.9,09.5,-000.6,0009.63,0019.17,0008.68
2022-11-13 16:40:00,,0820.0,5.01,0.00,23.0,21.7,00.0,31.8,25.0,09.5,-001.0,0009.64,0019.57,0008.63
2022-11-13 16:41:00,,0819.9,4.99,0.00,23.0,21.7,00.0,31.8,25.0,09.5,-000.8,0009.57,0019.46,0008.57
2022-11-13 16:42:00,,0819.9,4.99,0.00,23.0,21.7,00.0,31.8,25.0,09.6,-000.5,0009.55,0019.43,0008.55
2022-11-13 16:43:00,,0819.9,5.01,0.00,23.0,21.7,00.0,31.8,24.9,09.6,0000.2,0009.53,0019.07,0008.54
2022-11-13 16:44:00,,0819.9,5.00,0.00,23.0,21.7,00.0,31.8,24.9,09.6,0000.9,0009.51,0018.43,0008.55
2022-11-13 16:45:00,,0819.9,5.00,0.00,23.0,21.7,00.0,31.8,24.9,09.6,0000.4,0009.48,0018.19,0008.54
2022-11-13 16:46:00,,0819.9,5.00,0.00,23.0,21.7,00.0,31.8,24.9,09.7,0000.0,0009.47,0017.75,0008.53
2022-11-13 16:47:00,,0820.0,5.00,0.00,23.0,21.7,00.0,31.8,24.9,09.7,0000.1,0009.40,0017.42,0008.50
2022-11-13 16:48:00,,0820.0,5.00,0.00,23.0,21.7,00.0,31.8,24.9,09.7,0000.3,0009.39,0018.24,0008.49
2022-11-13 16:49:00,,0820.0,5.00,0.00,23.0,21.7,00.0,31.8,24.9,09.7,0000.4,0009.44,0019.62,0008.51
2022-11-13 16:50:00,,0820.0,5.00,0.00,23.0,21.7,00.0,31.8,25.0,09.7,0000.5,0009.45,0019.80,0008.50
2022-11-13 16:51:00,,0820.0,5.00,0.00,23.0,21.7,00.0,31.8,24.9,09.6,0000.6,0009.41,0019.68,0008.50
2022-11-13 16:52:00,,0820.0,5.01,0.00,23.0,21.7,00.0,31.8,24.9,09.6,0000.7,0009.42,0020.04,0008.53
2022-11-13 16:53:00,,0820.0,5.00,0.00,23.0,21.7,00.0,31.8,24.9,09.7,0000.6,0009.47,0019.88,0008.55
2022-11-13 16:54:00,,0820.0,4.99,0.00,23.0,21.7,00.0,31.8,24.9,09.7,0000.9,0009.47,0019.45,0008.56
2022-11-13 16:55:00,,0819.9,5.00,0.00,23.0,21.7,00.0,31.8,24.9,09.7,0001.3,0009.48,0019.87,0008.58
2022-11-13 16:56:00,,0819.9,4.99,0.00,23.0,21.7,00.0,31.8,25.0,09.7,0001.5,0009.52,0020.13,0008.60
2022-11-13 16:57:00,,0819.9,5.00,0.00,23.0,21.7,00.0,31.8,24.9,09.6,0002.2,0009.59,0020.27,0008.65
2022-11-13 16:58:00,,0819.9,5.00,0.00,23.0,21.7,00.0,31.8,25.0,09.6,0002.7,0009.70,0020.23,0008.72
2022-11-13 16:59:00,,0819.9,5.00,0.00,23.0,21.7,00.0,31.8,24.9,09.4,0002.0,0009.73,0018.94,0008.76
